KK5DC Weather Reports


time (UTC)temp
C
wind
direction
speed
KPH
gust
KPH
rain 1hr
cm
rain 24hr
cm
rain mn
cm
humidity
%
barometer
mb
20260509213010 25 275 0.0 3.2 0.00 0.00 0.00 80 1008.9
20260509213008 25 5 0.0 3.2 0.00 0.00 0.00 80 1009.5
20260509212509 25 275 0.0 3.2 0.00 0.00 0.00 78 1009.0
20260509212504 25 5 0.0 3.2 0.00 0.00 0.00 78 1009.7
20260509212011 26 5 0.0 3.2 0.00 0.00 0.00 78 1009.8
20260509211526 25 285 0.0 3.2 0.00 0.00 0.00 77 1009.1
20260509211507 25 352 0.0 3.2 0.00 0.00 0.00 77 1009.7
20260509211006 25 285 0.0 3.2 0.00 0.00 0.00 76 1009.3
20260509211004 25 23 0.0 4.8 0.00 0.00 0.00 76 1009.8
20260509210509 26 285 0.0 3.2 0.00 0.00 0.00 75 1009.4
20260509210503 26 146 0.0 4.8 0.00 0.00 0.00 75 1009.9
20260509210013 26 288 0.0 3.2 0.00 0.00 0.00 76 1009.3
20260509210011 26 13 0.0 3.2 0.00 0.00 0.00 76 1009.8
20260509205505 26 348 1.6 4.8 0.00 0.00 0.00 74 1009.2
20260509205007 26 28 0.0 14.5 0.00 0.00 0.00 74 1009.4
20260509205005 26 360 0.0 4.8 0.00 0.00 0.00 74 1009.9
20260509204517 27 254 3.2 14.5 0.00 0.00 0.00 72 1009.3
20260509204514 27 20 1.6 4.8 0.00 0.00 0.00 72 1009.9
20260509204006 28 282 1.6 9.7 0.00 0.00 0.00 74 1009.4
20260509204003 28 360 0.0 3.2 0.00 0.00 0.00 74 1010.0
20260509203506 28 294 0.0 3.2 0.00 0.00 0.00 73 1009.6
20260509203504 28 326 0.0 3.2 0.00 0.00 0.00 73 1010.1
20260509203021 28 291 0.0 3.2 0.00 0.00 0.00 73 1009.5
20260509203014 28 326 0.0 3.2 0.00 0.00 0.00 73 1010.1
20260509202506 28 291 0.0 3.2 0.00 0.00 0.00 73 1009.4
20260509202016 28 291 0.0 3.2 0.00 0.00 0.00 1009.7
20260509202006 28 53 0.0 3.2 0.00 0.00 0.00 1010.2
20260509201517 28 285 0.0 3.2 0.00 0.00 0.00 70 1009.7
20260509201515 28 53 0.0 3.2 0.00 0.00 0.00 70 1010.3
20260509201008 28 267 0.0 3.2 0.00 0.00 0.00 70 1009.9
20260509200512 28 267 0.0 4.8 0.00 0.00 0.00 67 1010.0
20260509200510 28 16 1.6 3.2 0.00 0.00 0.00 67 1010.6
20260509200018 29 265 1.6 6.4 0.00 0.00 0.00 66 1009.9
20260509200008 29 252 0.0 3.2 0.00 0.00 0.00 66 1010.6
20260509195513 29 266 3.2 6.4 0.00 0.00 0.00 64 1010.1
20260509195503 29 350 0.0 3.2 0.00 0.00 0.00 64 1010.7
20260509195004 30 263 0.0 8.0 0.00 0.00 0.00 62 1010.1
20260509195002 30 262 1.6 4.8 0.00 0.00 0.00 62 1010.7
20260509194519 31 278 1.6 9.7 0.00 0.00 0.00 62 1010.0
20260509194511 31 352 0.0 4.8 0.00 0.00 0.00 62 1010.6
20260509194007 31 244 3.2 9.7 0.00 0.00 0.00 62 1009.9
20260509194005 31 273 1.6 4.8 0.00 0.00 0.00 62 1010.5
20260509193509 31 55 1.6 4.8 0.00 0.00 0.00 58 1010.6
20260509193506 31 207 1.6 8.0 0.00 0.00 0.00 58 1010.0
20260509193024 30 229 1.6 4.8 0.00 0.00 0.00 62 1009.8
20260509193017 30 281 1.6 4.8 0.00 0.00 0.00 62 1010.5
20260509192505 30 190 1.6 8.0 0.00 0.00 0.00 64 1009.9
20260509192503 30 78 1.6 4.8 0.00 0.00 0.00 64 1010.5
20260509192008 30 208 3.2 11.3 0.00 0.00 0.00 64 1010.1
20260509191523 31 222 6.4 11.3 0.00 0.00 0.00 67 1010.0
20260509191517 31 272 1.6 8.0 0.00 0.00 0.00 67 1010.6
20260509191013 30 213 4.8 9.7 0.00 0.00 0.00 70 1010.0
20260509191006 30 230 1.6 4.8 0.00 0.00 0.00 70 1010.7
20260509190511 30 91 1.6 4.8 0.00 0.00 0.00 67 1010.9
20260509190507 30 10 1.6 6.4 0.00 0.00 0.00 67 1010.2
20260509190029 29 238 3.2 6.4 0.00 0.00 0.00 68 1010.3
20260509190019 29 53 1.6 4.8 0.00 0.00 0.00 68 1011.0
20260509185509 29 273 0.0 6.4 0.00 0.00 0.00 67 1010.4
20260509185505 29 24 1.6 4.8 0.00 0.00 0.00 67 1011.1
20260509185004 28 267 1.6 6.4 0.00 0.00 0.00 70 1010.6
20260509184541 29 255 1.6 11.3 0.00 0.00 0.00 67 1010.8
20260509184521 29 46 0.0 4.8 0.00 0.00 0.00 67 1011.4
20260509184006 30 199 1.6 4.8 0.00 0.00 0.00 68 1011.5
20260509183507 28 250 1.6 4.8 0.00 0.00 0.00 70 1010.9
20260509183504 28 15 0.0 3.2 0.00 0.00 0.00 70 1011.5
20260509183028 28 333 0.0 3.2 0.00 0.00 0.00 73 1011.6
20260509183021 28 246 1.6 3.2 0.00 0.00 0.00 73 1011.0
20260509182507 28 298 0.0 4.8 0.00 0.00 0.00 72 1011.1
20260509182008 28 281 0.0 4.8 0.00 0.00 0.00 72 1011.1
20260509181517 29 292 3.2 8.0 0.00 0.00 0.00 68 1011.2
20260509181007 30 190 4.8 8.0 0.00 0.00 0.00 67 1011.2
20260509180514 30 230 4.8 6.4 0.00 0.00 0.00 69 1011.3
20260509180507 30 200 1.6 4.8 0.00 0.00 0.00 69 1011.8
20260509180016 28 348 1.6 4.8 0.00 0.00 0.00 73 1011.8
20260509180008 28 156 3.2 8.0 0.00 0.00 0.00 73 1011.3
20260509175512 28 214 3.2 6.4 0.00 0.00 0.00 71 1011.9
20260509175503 28 234 3.2 8.0 0.00 0.00 0.00 71 1011.4
20260509175007 28 204 3.2 6.4 0.00 0.00 0.00 72 1011.9
20260509175003 28 209 4.8 8.0 0.00 0.00 0.00 72 1011.5
20260509174511 27 232 3.2 9.7 0.00 0.00 0.00 75 1011.5
20260509174509 27 217 1.6 6.4 0.00 0.00 0.00 75 1012.0
20260509174003 28 275 4.8 9.7 0.00 0.00 0.00 71 1011.6
20260509173511 30 223 1.6 4.8 0.00 0.00 0.00 72 1012.1
20260509173502 30 155 1.6 8.0 0.00 0.00 0.00 72 1011.7
20260509173021 28 195 0.0 3.2 0.00 0.00 0.00 74 1012.2
20260509173008 28 248 3.2 8.0 0.00 0.00 0.00 74 1011.6
20260509172510 28 271 3.2 6.4 0.00 0.00 0.00 80 1011.8
20260509172504 28 294 1.6 3.2 0.00 0.00 0.00 80 1012.3
20260509172007 27 234 0.0 3.2 0.00 0.00 0.00 79 1012.3
20260509172004 27 202 0.0 8.0 0.00 0.00 0.00 79 1011.8
20260509171524 27 265 0.0 3.2 0.00 0.00 0.00 77 1012.2
20260509171506 27 215 4.8 8.0 0.00 0.00 0.00 77 1011.8
20260509171008 27 223 1.6 3.2 0.00 0.00 0.00 75 1012.2
20260509171002 27 190 1.6 8.0 0.00 0.00 0.00 75 1011.7
20260509170507 27 189 3.2 11.3 0.00 0.00 0.00 76 1011.7
20260509170504 27 158 0.0 4.8 0.00 0.00 0.00 76 1012.1
20260509170018 27 269 1.6 4.8 0.00 0.00 0.00 76 1012.2
20260509170004 27 229 3.2 11.3 0.00 0.00 0.00 76 1011.8
20260509165507 27 227 3.2 6.4 0.00 0.00 0.00 75 1012.1
20260509165502 27 211 4.8 9.7 0.00 0.00 0.00 75 1011.6
20260509165006 28 207 0.0 6.4 0.00 0.00 0.00 75 1012.1
20260509165003 28 213 1.6 12.9 0.00 0.00 0.00 75 1011.6
20260509164518 28 216 1.6 6.4 0.00 0.00 0.00 76 1012.1
20260509164509 28 210 8.0 12.9 0.00 0.00 0.00 76 1011.6
20260509164009 27 204 1.6 8.0 0.00 0.00 0.00 75 1012.1
20260509164006 27 180 3.2 16.1 0.00 0.00 0.00 75 1011.5
20260509163504 27 265 8.0 17.7 0.00 0.00 0.00 78 1011.6
20260509163023 28 235 9.7 19.3 0.00 0.00 0.00 77 1011.5
20260509163019 28 231 1.6 9.7 0.00 0.00 0.00 77 1012.0
20260509162507 28 165 3.2 9.7 0.00 0.00 0.00 78 1011.8
20260509162505 28 186 11.3 24.1 0.00 0.00 0.00 78 1011.3
20260509162006 28 178 1.6 9.7 0.00 0.00 0.00 79 1011.8
20260509162003 28 182 14.5 24.1 0.00 0.00 0.00 79 1011.3
20260509161518 27 227 3.2 9.7 0.00 0.00 0.00 79 1011.8
20260509161512 27 201 9.7 19.3 0.00 0.00 0.00 79 1011.3
20260509161012 27 165 3.2 9.7 0.00 0.00 0.00 77 1011.8
20260509161010 27 215 12.9 20.9 0.00 0.00 0.00 77 1011.2
20260509160508 27 224 3.2 8.0 0.00 0.00 0.00 80 1011.8
20260509160503 27 197 12.9 20.9 0.00 0.00 0.00 80 1011.2
20260509160022 27 152 1.6 9.7 0.00 0.00 0.00 79 1011.9
20260509160005 27 181 9.7 17.7 0.00 0.00 0.00 79 1011.2
20260509155506 27 230 3.2 9.7 0.00 0.00 0.00 79 1012.1
20260509155502 27 187 12.9 16.1 0.00 0.00 0.00 79 1011.4
20260509155009 27 213 3.2 9.7 0.00 0.00 0.00 81 1012.1
20260509155004 27 207 11.3 17.7 0.00 0.00 0.00 81 1011.4
20260509154529 27 221 1.6 9.7 0.00 0.00 0.00 80 1012.0
20260509154513 27 186 11.3 17.7 0.00 0.00 0.00 80 1011.3
20260509154006 27 213 6.4 9.7 0.00 0.00 0.00 80 1012.1
20260509154003 27 208 11.3 17.7 0.00 0.00 0.00 80 1011.4
20260509153507 27 193 1.6 9.7 0.00 0.00 0.00 81 1012.0
20260509153504 27 167 8.0 17.7 0.00 0.00 0.00 81 1011.3
20260509153025 27 279 4.8 11.3 0.00 0.00 0.00 82 1011.9
20260509153003 27 206 12.9 17.7 0.00 0.00 0.00 82 1011.3
20260509152507 26 169 1.6 11.3 0.00 0.00 0.00 85 1012.0
20260509152504 26 202 8.0 16.1 0.00 0.00 0.00 85 1011.3
20260509152007 26 181 11.3 16.1 0.00 0.00 0.00 83 1011.4
20260509151518 26 170 9.7 19.3 0.00 0.00 0.00 84 1011.3
20260509151516 26 154 1.6 8.0 0.00 0.00 0.00 84 1012.0
20260509151006 25 219 3.2 8.0 0.00 0.00 0.00 85 1011.8
20260509151003 25 181 9.7 19.3 0.00 0.00 0.00 85 1011.1
20260509150507 25 163 9.7 14.5 0.00 0.00 0.00 87 1011.0
20260509150020 24 215 0.0 3.2 0.00 0.00 0.00 91 1011.9
20260509150016 24 165 4.8 11.3 0.00 0.00 0.00 91 1011.1
20260509145509 23 233 1.6 6.4 0.00 0.00 0.00 89 1012.1
20260509145503 23 163 3.2 16.1 0.00 0.00 0.00 89 1011.2
20260509145009 24 146 1.6 8.0 0.00 0.00 0.00 89 1012.1
20260509145003 24 176 6.4 16.1 0.00 0.00 0.00 89 1011.2
20260509144519 24 270 1.6 8.0 0.00 0.00 0.00 89 1012.0
20260509144509 24 195 8.0 19.3 0.00 0.00 0.00 89 1011.2
20260509144007 23 156 1.6 3.2 0.00 0.00 0.00 90 1011.9
20260509144004 23 174 6.4 19.3 0.00 0.00 0.00 90 1011.1
20260509143510 23 220 1.6 4.8 0.00 0.00 0.00 92 1011.7
20260509143504 23 228 4.8 12.9 0.00 0.00 0.00 92 1010.8
20260509143016 23 159 1.6 4.8 0.00 0.00 0.00 91 1011.5
20260509143012 23 146 4.8 11.3 0.00 0.00 0.00 91 1010.7
20260509142507 23 144 1.6 6.4 0.00 0.00 0.00 92 1011.5
20260509142505 23 169 4.8 12.9 0.00 0.00 0.00 92 1010.7
20260509142009 23 227 1.6 6.4 0.00 0.00 0.00 93 1011.5
20260509141528 23 161 3.2 11.3 0.00 0.00 0.00 95 1010.8
20260509141523 23 200 1.6 6.4 0.00 0.00 0.00 95 1011.6
20260509141007 22 167 0.0 3.2 0.00 0.00 0.00 94 1011.7
20260509141004 22 165 4.8 11.3 0.00 0.00 0.00 94 1010.9
20260509140507 22 190 4.8 9.7 0.00 0.00 0.00 94 1011.0
20260509140020 22 165 0.0 3.2 0.00 0.00 0.00 94 1011.9
20260509140007 22 185 3.2 6.4 0.00 0.00 0.00 94 1011.2
20260509135507 22 182 0.0 3.2 0.00 0.00 0.00 94 1011.9
20260509135011 22 140 1.6 3.2 0.00 0.00 0.00 94 1012.0
20260509135005 22 155 1.6 4.8 0.00 0.00 0.00 94 1011.4
20260509134521 22 180 1.6 6.4 0.00 0.00 0.00 94 1012.0
20260509134518 22 154 1.6 4.8 0.00 0.00 0.00 94 1011.4
20260509134006 22 148 0.0 3.2 0.00 0.00 0.00 94 1011.5
20260509133509 22 93 0.0 3.2 0.00 0.00 0.00 94 1012.2
20260509133503 22 158 0.0 3.2 0.00 0.00 0.00 94 1011.5
20260509133022 22 165 0.0 3.2 0.00 0.00 0.00 94 1012.2
20260509133008 22 158 0.0 3.2 0.00 0.00 0.00 94 1011.6
20260509132508 22 165 0.0 3.2 0.00 0.00 0.00 94 1012.1
20260509132505 22 158 0.0 3.2 0.00 0.00 0.00 94 1011.5
20260509132008 22 165 0.0 3.2 0.00 0.00 0.00 94 1012.0
20260509131519 22 211 0.0 3.2 0.00 0.00 0.00 94 1012.0
20260509131511 22 158 0.0 3.2 0.00 0.00 0.00 94 1011.3
20260509131009 22 84 0.0 3.2 0.00 0.00 0.00 94 1011.9
20260509131003 22 158 0.0 3.2 0.00 0.00 0.00 94 1011.2
20260509130503 22 158 1.6 3.2 0.00 0.00 0.00 95 1010.9
20260509130024 22 158 0.0 3.2 0.00 0.00 0.00 95 1010.8
20260509130019 22 156 0.0 3.2 0.00 0.00 0.00 95 1011.6
20260509125510 22 158 0.0 3.2 0.00 0.00 0.00 95 1010.8
20260509125006 22 133 0.0 3.2 0.00 0.00 0.00 95 1011.7
20260509125004 22 187 1.6 3.2 0.00 0.00 0.00 95 1010.9
20260509124517 22 157 1.6 3.2 0.00 0.00 0.00 95 1011.0
20260509124512 22 98 0.0 3.2 0.00 0.00 0.00 95 1011.7
20260509124008 22 327 0.0 3.2 0.00 0.00 0.00 95 1010.9
20260509123510 22 98 0.0 3.2 0.00 0.00 0.00 95 1011.7
20260509123508 22 320 0.0 3.2 0.00 0.00 0.00 95 1010.9
20260509123014 22 320 0.0 3.2 0.00 0.00 0.00 95 1011.1
20260509123011 22 19 0.0 3.2 0.00 0.00 0.00 95 1011.8
20260509122504 22 320 0.0 3.2 0.00 0.00 0.00 95 1011.1
20260509122007 22 360 0.0 3.2 0.00 0.00 0.00 94 1011.6
20260509122003 22 320 0.0 3.2 0.00 0.00 0.00 94 1010.9
20260509121508 22 5 0.0 4.8 0.00 0.00 0.00 95 1011.4
20260509121005 22 320 0.0 4.8 0.00 0.00 0.00 94 1010.6
20260509120506 22 9 0.0 4.8 0.00 0.00 0.00 94 1011.4
20260509120504 22 320 0.0 3.2 0.00 0.00 0.00 94 1010.7
20260509120022 22 319 1.6 3.2 0.00 0.00 0.00 94 1010.9
20260509120016 22 16 0.0 3.2 0.00 0.00 0.00 94 1011.6
20260509115505 22 336 0.0 3.2 0.00 0.00 0.00 94 1011.6
20260509115503 22 333 1.6 6.4 0.00 0.00 0.00 94 1010.9
20260509115009 22 24 0.0 6.4 0.00 0.00 0.00 94 1011.6
20260509115007 22 330 0.0 6.4 0.00 0.00 0.00 94 1010.9
20260509114540 22 9 1.6 6.4 0.00 0.00 0.00 94 1011.8
20260509114523 22 328 1.6 4.8 0.00 0.00 0.00 94 1011.0
20260509114004 22 324 1.6 3.2 0.00 0.00 0.00 94 1011.3
20260509113505 22 360 0.0 3.2 0.00 0.00 0.00 94 1011.9
20260509113024 22 352 0.0 0.0 0.00 0.00 0.00 94 1011.9
20260509112507 22 265 0.0 3.2 0.00 0.00 0.00 94 1011.2
20260509112016 22 352 0.0 0.0 0.00 0.00 0.00 94 1012.0
20260509112008 22 265 0.0 3.2 0.00 0.00 0.00 94 1011.3
20260509111520 22 352 0.0 1.6 0.00 0.00 0.00 94 1012.0
20260509111512 22 265 0.0 3.2 0.00 0.00 0.00 94 1011.3
20260509111005 22 352 0.0 3.2 0.00 0.00 0.00 94 1012.3
20260509111003 22 265 0.0 3.2 0.00 0.00 0.00 94 1011.6
20260509110506 22 352 0.0 3.2 0.00 0.00 0.00 94 1012.3
20260509110014 22 302 0.0 3.2 0.00 0.00 0.00 94 1012.3
20260509110012 22 265 0.0 3.2 0.00 0.00 0.00 94 1011.6
20260509105510 22 302 0.0 3.2 0.00 0.00 0.00 94 1011.8
20260509105504 22 306 0.0 3.2 0.00 0.00 0.00 94 1012.5
20260509105008 22 62 0.0 3.2 0.00 0.00 0.00 94 1012.4
20260509105004 22 307 1.6 3.2 0.00 0.00 0.00 94 1011.8
20260509104522 22 62 0.0 0.0 0.00 0.00 0.00 94 1012.2
20260509104510 22 308 1.6 3.2 0.00 0.00 0.00 94 1011.5
20260509104009 22 323 0.0 3.2 0.00 0.00 0.00 94 1011.6
20260509104006 22 62 0.0 3.2 0.00 0.00 0.00 94 1012.3
20260509103509 22 323 0.0 3.2 0.00 0.00 0.00 94 1011.8
20260509103507 22 62 0.0 3.2 0.00 0.00 0.00 94 1012.5
20260509103011 22 62 0.0 3.2 0.00 0.00 0.00 94 1012.7
20260509102505 22 323 0.0 3.2 0.00 0.00 0.00 94 1012.0
20260509102011 22 323 0.0 3.2 0.00 0.00 0.00 94 1012.0
20260509101530 22 323 0.0 3.2 0.00 0.00 0.00 94 1011.8
20260509101526 22 360 0.0 3.2 0.00 0.00 0.00 94 1012.4
20260509101005 22 311 1.6 3.2 0.00 0.00 0.00 94 1011.6
20260509101003 22 350 0.0 3.2 0.00 0.00 0.00 94 1012.3
20260509100507 21 346 0.0 3.2 0.00 0.00 0.00 94 1012.0
20260509100012 21 163 0.0 1.6 0.00 0.00 0.00 94 1011.0
20260509095509 21 163 0.0 3.2 0.00 0.00 0.00 94 1010.8
20260509095507 21 229 0.0 3.2 0.00 0.00 0.00 94 1011.5
20260509095006 21 163 0.0 3.2 0.00 0.00 0.00 94 1010.7
20260509094523 21 229 0.0 3.2 0.00 0.00 0.00 94 1011.1
20260509094521 21 163 0.0 3.2 0.00 0.00 0.00 94 1010.5
20260509094007 21 143 1.6 1.6 0.00 0.00 0.00 94 1010.5
20260509093505 21 132 1.6 3.2 0.00 0.00 0.00 94 1010.4
20260509093023 22 229 0.0 0.0 0.00 0.00 0.00 94 1011.0
20260509093020 22 132 0.0 3.2 0.00 0.00 0.00 94 1010.4
20260509092512 22 229 0.0 3.2 0.00 0.00 0.00 94 1011.1
20260509092506 22 132 0.0 3.2 0.00 0.00 0.00 94 1010.3
20260509092012 22 132 0.0 3.2 0.00 0.00 0.00 94 1010.3
20260509092007 22 229 0.0 3.2 0.00 0.00 0.00 94 1011.1
20260509091518 22 132 0.0 3.2 0.00 0.00 0.00 94 1010.2
20260509091006 22 132 0.0 3.2 0.00 0.00 0.00 94 1010.1
20260509090511 22 175 0.0 1.6 0.00 0.00 0.00 94 1011.0
20260509090041 22 190 0.0 0.0 0.00 0.00 0.00 94 1010.9
20260509090010 22 147 0.0 1.6 0.00 0.00 0.00 94 1010.2
20260509085506 22 190 0.0 0.0 0.00 0.00 0.00 94 1011.0
20260509085003 22 190 0.0 1.6 0.00 0.00 0.00 94 1011.2
20260509084521 22 190 0.0 1.6 0.00 0.00 0.00 94 1011.3
20260509084512 22 147 0.0 3.2 0.00 0.00 0.00 94 1010.7
20260509084010 22 190 0.0 3.2 0.00 0.00 0.00 94 1011.4
20260509084007 22 147 0.0 3.2 0.00 0.00 0.00 94 1010.8
20260509083508 22 190 0.0 3.2 0.00 0.00 0.00 94 1011.5
20260509083040 22 190 0.0 0.0 0.00 0.00 0.00 94 1011.5
20260509083006 22 147 0.0 3.2 0.00 0.00 0.00 94 1010.9
20260509082506 22 190 0.0 0.0 0.00 0.00 0.00 93 1011.7
20260509082503 22 147 0.0 3.2 0.00 0.00 0.00 93 1011.1
20260509082016 22 190 0.0 3.2 0.00 0.00 0.00 93 1011.8
20260509082007 22 147 0.0 3.2 0.00 0.00 0.00 93 1011.2
20260509081533 22 147 0.0 3.2 0.00 0.00 0.00 93 1011.2
20260509081528 22 190 0.0 3.2 0.00 0.00 0.00 93 1011.9
20260509081014 22 190 0.0 3.2 0.00 0.00 0.00 93 1011.7
20260509081005 22 147 0.0 3.2 0.00 0.00 0.00 93 1011.1
20260509080506 22 190 0.0 0.0 0.00 0.00 0.00 93 1011.8
20260509080501 22 147 0.0 0.0 0.00 0.00 0.00 93 1011.2
20260509080024 22 190 0.0 1.6 0.00 0.00 0.00 93 1011.9
20260509080006 22 147 0.0 3.2 0.00 0.00 0.00 93 1011.2
20260509075509 22 190 0.0 3.2 0.00 0.00 0.00 93 1012.0
20260509075502 22 147 0.0 3.2 0.00 0.00 0.00 93 1011.4
20260509075003 22 190 0.0 3.2 0.00 0.00 0.00 93 1011.9
20260509074531 22 190 0.0 3.2 0.00 0.00 0.00 93 1011.9
20260509074512 22 147 0.0 3.2 0.00 0.00 0.00 93 1011.3
20260509074008 22 147 0.0 1.6 0.00 0.00 0.00 93 1011.3
20260509074003 22 190 0.0 1.6 0.00 0.00 0.00 93 1011.9
20260509073509 22 190 0.0 1.6 0.00 0.00 0.00 93 1011.7
20260509073505 22 147 0.0 3.2 0.00 0.00 0.00 93 1011.2
20260509073034 22 147 0.0 3.2 0.00 0.00 0.00 93 1011.2
20260509073020 22 200 0.0 0.0 0.00 0.00 0.00 93 1011.8
20260509072514 22 200 0.0 3.2 0.00 0.00 0.00 93 1011.8
20260509072507 22 147 0.0 6.4 0.00 0.00 0.00 93 1011.2
20260509072009 22 200 0.0 3.2 0.00 0.00 0.00 93 1011.7
20260509072002 22 147 0.0 6.4 0.00 0.00 0.00 93 1011.1
20260509071528 22 115 0.0 4.8 0.00 0.00 0.00 92 1011.0
20260509071520 22 180 0.0 3.2 0.00 0.00 0.00 92 1011.6
20260509071007 22 171 0.0 3.2 0.00 0.00 0.00 92 1011.7
20260509070513 22 160 3.2 8.0 0.00 0.00 0.00 92 1010.8
20260509070507 22 193 0.0 3.2 0.00 0.00 0.00 92 1011.4
20260509070032 22 117 0.0 3.2 0.00 0.00 0.00 92 1011.4
20260509070017 22 163 1.6 6.4 0.00 0.00 0.00 92 1010.8
20260509065513 22 76 0.0 4.8 0.00 0.00 0.00 92 1011.3
20260509065504 22 160 1.6 9.7 0.00 0.00 0.00 92 1010.8
20260509065010 22 131 0.0 4.8 0.00 0.00 0.00 92 1011.5
20260509065002 22 168 3.2 9.7 0.00 0.00 0.00 92 1010.9
20260509064527 22 137 0.0 3.2 0.00 0.00 0.00 92 1011.6
20260509064506 22 147 1.6 8.0 0.00 0.00 0.00 92 1011.0
20260509064008 22 164 3.2 8.0 0.00 0.00 0.00 92 1010.9
20260509063506 22 178 0.0 3.2 0.00 0.00 0.00 91 1011.5
20260509063018 22 169 1.6 9.7 0.00 0.00 0.00 91 1010.9
20260509062510 22 144 0.0 6.4 0.00 0.00 0.00 91 1011.4
20260509062503 22 207 1.6 14.5 0.00 0.00 0.00 91 1010.8
20260509062007 22 163 1.6 14.5 0.00 0.00 0.00 91 1010.6
20260509062004 22 180 1.6 6.4 0.00 0.00 0.00 91 1011.2
20260509061523 22 155 0.0 6.4 0.00 0.00 0.00 91 1010.5
20260509061521 22 207 0.0 3.2 0.00 0.00 0.00 91 1011.2
20260509061008 22 262 0.0 3.2 0.00 0.00 0.00 91 1011.2
20260509060506 22 149 0.0 12.9 0.00 0.00 0.00 91 1010.9
20260509060022 22 171 1.6 4.8 0.00 0.00 0.00 91 1011.5
20260509060004 22 186 3.2 17.7 0.00 0.00 0.00 91 1010.8
20260509055508 22 173 0.0 4.8 0.00 0.00 0.00 91 1011.4
20260509055504 22 162 6.4 17.7 0.00 0.00 0.00 91 1010.8
20260509055010 22 146 0.0 4.8 0.00 0.00 0.00 91 1011.4
20260509055004 22 150 4.8 12.9 0.00 0.00 0.00 91 1010.7
20260509054520 22 174 1.6 6.4 0.00 0.00 0.00 91 1011.4
20260509054511 22 161 1.6 14.5 0.00 0.00 0.00 91 1010.8
20260509054012 22 119 1.6 6.4 0.00 0.00 0.00 91 1011.3
20260509054003 22 148 4.8 14.5 0.00 0.00 0.00 91 1010.8
20260509053509 22 192 0.0 4.8 0.00 0.00 0.00 91 1011.2
20260509053503 22 167 3.2 9.7 0.00 0.00 0.00 91 1010.5
20260509053024 22 181 0.0 4.8 0.00 0.00 0.00 91 1011.1
20260509053013 22 148 3.2 9.7 0.00 0.00 0.00 91 1010.4
20260509052513 22 147 1.6 6.4 0.00 0.00 0.00 90 1011.2
20260509052506 22 82 3.2 9.7 0.00 0.00 0.00 90 1010.5
20260509052007 22 208 1.6 6.4 0.00 0.00 0.00 90 1011.2
20260509052002 22 154 4.8 14.5 0.00 0.00 0.00 90 1010.4
20260509051519 22 217 0.0 4.8 0.00 0.00 0.00 90 1011.0
20260509051510 22 141 3.2 14.5 0.00 0.00 0.00 90 1010.2
20260509051007 22 126 4.8 12.9 0.00 0.00 0.00 90 1010.2
20260509050511 22 195 1.6 6.4 0.00 0.00 0.00 90 1011.0
20260509050502 22 145 4.8 11.3 0.00 0.00 0.00 90 1010.3
20260509050041 22 193 1.6 3.2 0.00 0.00 0.00 90 1011.1
20260509050007 22 138 3.2 12.9 0.00 0.00 0.00 90 1010.4
20260509045507 22 186 1.6 3.2 0.00 0.00 0.00 90 1011.2
20260509045504 22 172 4.8 12.9 0.00 0.00 0.00 90 1010.5
20260509045009 22 205 0.0 3.2 0.00 0.00 0.00 90 1011.2
20260509045002 22 144 4.8 12.9 0.00 0.00 0.00 90 1010.4
20260509044529 22 174 0.0 3.2 0.00 0.00 0.00 90 1011.2
20260509044509 22 146 3.2 8.0 0.00 0.00 0.00 90 1010.5
20260509044015 22 132 0.0 3.2 0.00 0.00 0.00 90 1011.2
20260509044003 22 86 1.6 8.0 0.00 0.00 0.00 90 1010.5
20260509043507 22 81 0.0 3.2 0.00 0.00 0.00 91 1011.1
20260509043503 22 153 1.6 8.0 0.00 0.00 0.00 91 1010.5
20260509043035 22 171 0.0 3.2 0.00 0.00 0.00 91 1011.1
20260509043002 22 171 1.6 6.4 0.00 0.00 0.00 91 1010.4
20260509042511 22 142 0.0 3.2 0.00 0.00 0.00 90 1011.1
20260509042503 22 148 0.0 4.8 0.00 0.00 0.00 90 1010.4
20260509042014 22 165 0.0 3.2 0.00 0.00 0.00 90 1011.2
20260509042007 22 148 1.6 3.2 0.00 0.00 0.00 90 1010.5
20260509041524 22 165 0.0 3.2 0.00 0.00 0.00 90 1011.2
20260509041515 22 148 1.6 4.8 0.00 0.00 0.00 90 1010.5
20260509041009 22 183 0.0 3.2 0.00 0.00 0.00 90 1011.3
20260509041003 22 136 1.6 4.8 0.00 0.00 0.00 90 1010.6
20260509040507 22 152 1.6 4.8 0.00 0.00 0.00 89 1010.6
20260509040022 22 148 1.6 4.8 0.00 0.00 0.00 89 1010.5
20260509035508 22 188 0.0 3.2 0.00 0.00 0.00 89 1011.1
20260509035504 22 221 1.6 4.8 0.00 0.00 0.00 89 1010.4
20260509035010 22 148 0.0 3.2 0.00 0.00 0.00 89 1011.0
20260509035003 22 153 1.6 6.4 0.00 0.00 0.00 89 1010.3
20260509034523 22 149 0.0 1.6 0.00 0.00 0.00 89 1011.0
20260509034504 22 150 1.6 6.4 0.00 0.00 0.00 89 1010.3
20260509034008 22 149 0.0 3.2 0.00 0.00 0.00 89 1010.9
20260509034003 22 133 0.0 3.2 0.00 0.00 0.00 89 1010.2
20260509033512 22 134 0.0 3.2 0.00 0.00 0.00 89 1011.0
20260509033502 22 126 0.0 3.2 0.00 0.00 0.00 89 1010.2
20260509033036 22 130 0.0 3.2 0.00 0.00 0.00 89 1011.0
20260509033008 22 126 0.0 3.2 0.00 0.00 0.00 89 1010.2
20260509032516 22 130 0.0 3.2 0.00 0.00 0.00 88 1011.0
20260509032504 22 96 0.0 3.2 0.00 0.00 0.00 88 1010.2
20260509032013 22 101 0.0 3.2 0.00 0.00 0.00 88 1010.9
20260509032006 22 96 0.0 3.2 0.00 0.00 0.00 88 1010.2
20260509031532 22 142 0.0 3.2 0.00 0.00 0.00 88 1010.8
20260509031511 22 146 0.0 3.2 0.00 0.00 0.00 88 1010.1
20260509031012 22 142 0.0 3.2 0.00 0.00 0.00 88 1010.8
20260509031006 22 146 0.0 3.2 0.00 0.00 0.00 88 1010.0
20260509030510 22 165 0.0 3.2 0.00 0.00 0.00 87 1010.7
20260509030506 22 103 0.0 3.2 0.00 0.00 0.00 87 1010.0
20260509030020 22 107 0.0 3.2 0.00 0.00 0.00 87 1010.7
20260509030007 22 103 0.0 3.2 0.00 0.00 0.00 87 1009.9
20260509025507 22 133 0.0 3.2 0.00 0.00 0.00 87 1010.7
20260509025504 22 113 0.0 3.2 0.00 0.00 0.00 87 1009.9
20260509025009 23 117 0.0 3.2 0.00 0.00 0.00 86 1010.6
20260509025006 23 113 0.0 3.2 0.00 0.00 0.00 86 1009.8
20260509024527 23 232 0.0 3.2 0.00 0.00 0.00 86 1010.5
20260509024014 23 202 0.0 3.2 0.00 0.00 0.00 86 1010.4
20260509024004 23 67 1.6 4.8 0.00 0.00 0.00 86 1009.7
20260509023509 23 140 0.0 3.2 0.00 0.00 0.00 85 1010.4
20260509023502 23 95 0.0 3.2 0.00 0.00 0.00 85 1009.8
20260509023008 23 95 0.0 3.2 0.00 0.00 0.00 85 1009.7
20260509023006 23 112 0.0 3.2 0.00 0.00 0.00 85 1010.4
20260509022504 23 90 1.6 3.2 0.00 0.00 0.00 85 1009.7
20260509022502 23 78 0.0 3.2 0.00 0.00 0.00 85 1010.3
20260509022005 23 180 0.0 4.8 0.00 0.00 0.00 85 1010.3
20260509021512 23 96 0.0 3.2 0.00 0.00 0.00 85 1009.6
20260509021004 23 111 0.0 3.2 0.00 0.00 0.00 84 1010.2
20260509020504 23 100 0.0 3.2 0.00 0.00 0.00 84 1009.4
20260509020032 23 116 0.0 3.2 0.00 0.00 0.00 84 1009.3
20260509020017 23 115 0.0 3.2 0.00 0.00 0.00 84 1010.1
20260509015508 23 116 0.0 3.2 0.00 0.00 0.00 84 1009.4
20260509015005 23 116 0.0 3.2 0.00 0.00 0.00 84 1009.4
20260509015001 23 94 0.0 3.2 0.00 0.00 0.00 84 1010.0
20260509014532 23 116 1.6 3.2 0.00 0.00 0.00 83 1009.4
20260509014516 23 149 0.0 3.2 0.00 0.00 0.00 83 1010.1
20260509014007 23 229 0.0 3.2 0.00 0.00 0.00 83 1010.1
20260509013507 23 94 0.0 3.2 0.00 0.00 0.00 83 1009.4
20260509013503 23 265 0.0 4.8 0.00 0.00 0.00 83 1010.1
20260509013012 23 80 1.6 3.2 0.00 0.00 0.00 83 1009.3
20260509013004 23 130 0.0 4.8 0.00 0.00 0.00 83 1010.1
20260509012506 23 80 0.0 3.2 0.00 0.00 0.00 83 1009.3
20260509012503 23 132 0.0 3.2 0.00 0.00 0.00 83 1010.1
20260509012003 23 78 0.0 3.2 0.00 0.00 0.00 83 1009.4
20260509011508 23 92 0.0 1.6 0.00 0.00 0.00 83 1010.0
20260509011003 23 87 1.6 3.2 0.00 0.00 0.00 83 1009.3
20260509010506 23 94 0.0 3.2 0.00 0.00 0.00 82 1010.0
20260509010502 23 87 0.0 3.2 0.00 0.00 0.00 82 1009.3
20260509010016 23 87 0.0 3.2 0.00 0.00 0.00 82 1009.3
20260509010012 23 103 0.0 1.6 0.00 0.00 0.00 82 1010.1
20260509005505 24 105 0.0 3.2 0.00 0.00 0.00 81 1010.1
20260509005503 24 89 0.0 3.2 0.00 0.00 0.00 81 1009.3
20260509005009 24 105 0.0 3.2 0.00 0.00 0.00 81 1010.0
20260509005006 24 89 0.0 3.2 0.00 0.00 0.00 81 1009.3
20260509004522 24 89 0.0 3.2 0.00 0.00 0.00 81 1009.3
20260509004006 24 89 0.0 3.2 0.00 0.00 0.00 80 1009.3
20260509004003 24 82 0.0 3.2 0.00 0.00 0.00 80 1010.0
20260509003509 24 82 1.6 3.2 0.00 0.00 0.00 80 1009.2
20260509003505 24 159 0.0 3.2 0.00 0.00 0.00 80 1010.0
20260509003030 24 70 0.0 3.2 0.00 0.00 0.00 79 1009.2
20260509003021 24 156 0.0 3.2 0.00 0.00 0.00 79 1009.9
20260509002513 25 178 0.0 3.2 0.00 0.00 0.00 80 1009.2
20260509002503 25 189 0.0 3.2 0.00 0.00 0.00 80 1009.9
20260509002005 25 111 0.0 3.2 0.00 0.00 0.00 80 1010.0
20260509001519 25 107 0.0 4.8 0.00 0.00 0.00 80 1009.3
20260509001508 25 148 0.0 3.2 0.00 0.00 0.00 80 1010.1
20260509001003 25 150 1.6 4.8 0.00 0.00 0.00 78 1009.3
20260509000503 25 120 0.0 3.2 0.00 0.00 0.00 78 1010.1
20260509000028 25 135 0.0 4.8 0.00 0.00 0.00 78 1010.0
20260509000012 25 113 0.0 4.8 0.00 0.00 0.00 78 1009.2
20260508235506 25 87 1.6 4.8 0.00 0.00 0.00 79 1010.0
20260508235504 25 98 1.6 3.2 0.00 0.00 0.00 79 1009.2
20260508235007 25 129 0.0 3.2 0.00 0.00 0.00 79 1009.2
20260508235004 25 121 0.0 3.2 0.00 0.00 0.00 79 1009.9
20260508234513 25 117 0.0 3.2 0.00 0.00 0.00 78 1010.1
20260508234008 25 112 1.6 4.8 0.00 0.00 0.00 78 1009.4
20260508233507 25 147 0.0 4.8 0.00 0.00 0.00 78 1010.1
20260508233025 25 98 1.6 6.4 0.00 0.00 0.00 77 1009.3
20260508233008 25 131 0.0 4.8 0.00 0.00 0.00 77 1010.1
20260508232507 25 17 0.0 4.8 0.00 0.00 0.00 77 1010.0
20260508232504 25 69 1.6 6.4 0.00 0.00 0.00 77 1009.2
20260508232010 25 96 1.6 6.4 0.00 0.00 0.00 77 1009.3
20260508232007 25 159 0.0 4.8 0.00 0.00 0.00 77 1010.0
20260508231529 25 76 1.6 6.4 0.00 0.00 0.00 76 1009.3
20260508231508 25 171 1.6 6.4 0.00 0.00 0.00 76 1010.1
20260508231007 25 109 1.6 9.7 0.00 0.00 0.00 77 1010.0
20260508231003 25 97 1.6 8.0 0.00 0.00 0.00 77 1009.3
20260508230507 26 61 3.2 8.0 0.00 0.00 0.00 75 1009.2
20260508230505 26 126 3.2 9.7 0.00 0.00 0.00 75 1010.0
20260508230018 26 158 3.2 11.3 0.00 0.00 0.00 75 1009.2
20260508230008 26 189 1.6 4.8 0.00 0.00 0.00 75 1009.9
20260508225503 26 134 1.6 11.3 0.00 0.00 0.00 74 1009.2
20260508225007 26 117 1.6 6.4 0.00 0.00 0.00 75 1009.9
20260508224537 26 186 1.6 6.4 0.00 0.00 0.00 75 1009.9
20260508224516 26 148 1.6 11.3 0.00 0.00 0.00 75 1009.2
20260508224006 26 352 1.6 11.3 0.00 0.00 0.00 75 1009.9
20260508223505 26 166 3.2 11.3 0.00 0.00 0.00 75 1009.1
20260508223023 26 135 3.2 9.7 0.00 0.00 0.00 77 1009.2
20260508223016 26 247 1.6 6.4 0.00 0.00 0.00 77 1009.8
20260508222509 26 223 1.6 6.4 0.00 0.00 0.00 74 1009.9
20260508222007 26 59 3.2 14.5 0.00 0.00 0.00 74 1009.2
20260508222002 26 130 1.6 9.7 0.00 0.00 0.00 74 1009.8
20260508221516 26 85 1.6 9.7 0.00 0.00 0.00 74 1010.0
20260508221514 26 142 1.6 11.3 0.00 0.00 0.00 74 1009.2
20260508221011 26 148 1.6 8.0 0.00 0.00 0.00 77 1009.3
20260508221009 26 182 1.6 4.8 0.00 0.00 0.00 77 1010.0
20260508220510 26 143 1.6 6.4 0.00 0.00 0.00 75 1009.5
20260508220503 26 205 1.6 4.8 0.00 0.00 0.00 75 1010.1
20260508220012 26 157 1.6 9.7 0.00 0.00 0.00 74 1009.5
20260508220010 26 164 1.6 4.8 0.00 0.00 0.00 74 1010.1
20260508215508 26 161 3.2 9.7 0.00 0.00 0.00 74 1009.5
20260508215503 26 294 1.6 4.8 0.00 0.00 0.00 74 1010.2
20260508215006 26 93 3.2 8.0 0.00 0.00 0.00 74 1009.5
20260508214518 26 167 1.6 8.0 0.00 0.00 0.00 73 1009.4
20260508214516 26 182 1.6 6.4 0.00 0.00 0.00 73 1010.0
20260508214006 26 360 0.0 12.9 0.00 0.00 0.00 75 1010.1
20260508213507 26 126 1.6 12.9 0.00 0.00 0.00 73 1010.1